Wind_Speed
11 12 12 14 14 15 15 16 16 16 16 16 17 16 16 16 15 14 13 12 13 13 14 14 13 12 14 15 17 21 24 26
13 15 14 13 14 14 14 13 13 13 11 10 10 10 12 12 15 13 12 12 14 15 15 15 15 16 18 19 21 24 26 30
15 16 16 15 15 15 15 14 13 13 11 10 10 10 11 13 15 13 12 12 15 16 17 17 18 20 22 22 25 27 30 34
12 13 15 15 14 13 13 12 12 13 12 13 11 11 9 11 12 13 15 17 18 18 18 19 21 23 23 25 28 30 32 34
16 13 11 9 11 13 13 13 13 13 14 14 13 13 12 12 14 17 20 22 19 19 21 21 23 24 27 29 31 33 32 35
17 15 13 11 12 11 12 12 14 15 15 17 18 17 17 16 19 22 24 24 21 21 22 25 27 29 30 32 35 35 37 39
20 18 16 14 16 15 14 12 13 16 18 18 19 19 18 21 23 24 26 26 24 24 25 28 29 29 34 38 39 35 36 36
20 21 20 18 17 15 16 13 15 15 16 20 20 21 19 17 22 22 25 25 25 26 27 27 27 33 34 28 31 41 41 39
19 18 19 19 16 16 13 15 14 15 16 17 17 25 22 19 19 22 24 24 25 21 23 28 32 30 34 33 32 34 41 44
18 19 18 16 16 17 13 14 15 17 16 20 20 20 20 22 23 23 22 24 25 21 23 22 27 30 32 33 37 42 43 43
13 17 17 18 17 18 19 17 19 19 19 20 21 20 21 20 22 22 20 22 26 29 22 23 29 34 33 33 38 41 40 37
9 13 13 16 18 21 21 20 19 17 19 20 21 21 20 21 21 22 22 26 21 26 25 29 34 31 38 36 39 37 37 37
3 7 8 6 6 8 9 9 8 10 14 18 20 20 20 20 22 23 19 21 24 28 32 30 42 33 34 44 38 36 35 34
5 5 5 5 6 6 8 11 13 14 17 21 22 23 25 22 23 24 23 24 30 32 32 33 42 35 35 38 34 33 31 30
13 10 10 10 10 12 16 17 17 19 22 24 25 26 25 24 26 29 26 27 30 34 37 32 35 43 33 34 33 31 30 30
19 16 16 15 17 18 19 20 22 24 27 28 27 27 27 28 28 31 28 29 36 35 46 38 33 34 35 32 31 30 31 32
22 21 21 21 22 23 23 23 25 26 28 28 28 26 26 28 27 26 31 36 31 39 41 36 29 35 34 32 32 32 33 35
23 23 22 21 21 20 22 23 24 24 23 23 25 28 28 26 29 30 35 36 39 41 33 34 37 32 31 31 32 36 37 38
21 18 18 18 20 22 23 23 23 23 24 27 29 29 28 26 32 36 31 36 35 31 37 36 31 30 29 33 35 38 41 42
Wind_Direction
164 156 154 154 156 150 151 150 151 155 160 167 178 182 191 201 206 216 230 248 258 273 286 293 295 303 304 305 307 309 313 315
169 168 169 169 165 163 157 161 162 164 166 171 178 191 206 213 217 231 243 255 264 272 284 294 295 301 300 298 299 302 310 312
170 176 179 175 175 170 171 169 178 187 187 189 193 206 217 227 232 242 254 264 268 276 283 291 289 289 289 291 297 305 306 309
177 179 180 186 185 181 181 187 193 197 205 218 225 236 247 249 250 252 261 261 265 270 278 280 280 284 290 293 298 301 305 305
205 203 194 185 186 197 201 207 219 223 227 239 248 252 253 255 259 258 261 263 269 274 280 279 280 285 288 291 294 293 299 315
208 198 183 188 196 202 214 224 234 237 240 248 251 253 258 259 257 262 267 271 271 275 275 277 278 280 285 290 294 289 291 306
213 206 208 207 209 212 221 235 239 243 247 254 255 254 262 262 270 266 269 269 266 267 270 275 280 287 285 282 291 298 309 299
221 220 220 222 226 229 233 246 260 270 263 255 259 270 272 263 267 275 280 263 263 269 277 285 293 298 289 292 292 293 294 295
224 221 231 236 236 236 242 250 261 258 263 258 255 265 274 283 274 277 276 261 265 277 289 290 277 299 298 297 286 290 297 305
213 216 228 232 232 238 245 254 262 263 270 260 260 270 272 268 270 273 269 270 274 288 288 288 294 295 287 307 290 295 307 308
218 216 216 222 231 229 237 248 254 260 267 266 269 266 264 266 265 263 259 266 266 272 299 291 287 279 274 296 297 308 306 298
223 211 227 212 215 225 225 236 243 247 257 265 267 267 267 263 260 258 260 266 293 285 284 280 298 300 269 291 308 299 305 314
178 159 156 176 195 207 214 228 246 259 271 272 275 275 274 273 272 278 279 282 284 279 278 276 288 290 316 291 295 310 317 309
192 222 232 243 244 250 258 265 272 277 280 282 282 281 281 279 277 270 268 286 277 290 282 294 283 288 304 292 303 314 306 302
236 236 237 241 243 253 265 270 275 277 278 280 282 281 279 277 277 270 289 291 291 299 288 297 303 282 291 304 307 302 303 303
245 249 245 241 244 257 266 271 274 276 277 279 277 280 278 280 276 274 288 290 288 307 304 280 281 287 308 307 302 300 300 299
241 248 252 252 252 257 264 270 274 275 276 279 278 278 280 281 288 293 286 302 297 306 286 278 305 306 314 299 296 298 297 298
248 252 252 252 258 266 276 281 282 280 278 277 275 281 286 287 289 295 291 303 286 281 292 304 302 311 299 297 297 298 301 303
240 243 249 262 276 285 288 289 288 286 282 281 281 282 286 286 294 290 298 289 288 300 302 303 306 303 300 300 301 303 302 302
Height
3130 3131 3133 3134 3136 3138 3140 3142 3144 3147 3149 3152 3154 3156 3157 3159 3160 3163 3165 3166 3168 3168 3167 3166 3165 3164 3163 3163 3160 3159 3157 3154
3130 3132 3134 3134 3136 3139 3140 3143 3145 3147 3150 3152 3154 3155 3157 3158 3159 3160 3162 3163 3165 3164 3163 3162 3161 3160 3159 3158 3156 3155 3152 3150
3128 3131 3133 3135 3137 3138 3141 3143 3145 3147 3149 3151 3152 3154 3155 3155 3155 3157 3159 3159 3159 3159 3158 3157 3156 3155 3154 3153 3152 3149 3147 3144
3129 3131 3132 3134 3136 3137 3140 3142 3145 3146 3147 3149 3150 3150 3151 3151 3153 3154 3154 3154 3153 3154 3153 3152 3151 3150 3150 3149 3147 3144 3142 3139
3127 3129 3131 3133 3135 3136 3138 3140 3142 3143 3144 3145 3147 3148 3148 3149 3149 3149 3149 3149 3149 3149 3148 3147 3146 3145 3144 3143 3141 3138 3136 3132
3126 3128 3129 3131 3133 3135 3137 3138 3139 3140 3140 3142 3143 3143 3144 3144 3144 3144 3144 3144 3144 3143 3143 3142 3140 3140 3138 3137 3135 3132 3128 3125
3123 3126 3127 3129 3131 3132 3133 3134 3136 3136 3136 3138 3139 3139 3139 3139 3139 3138 3138 3138 3138 3137 3136 3135 3134 3134 3132 3129 3127 3122 3119 3117
3117 3121 3123 3126 3127 3129 3130 3132 3132 3132 3133 3133 3135 3134 3133 3132 3132 3132 3131 3131 3131 3131 3130 3130 3128 3126 3123 3121 3118 3115 3112 3109
3112 3116 3119 3121 3124 3126 3127 3128 3128 3129 3129 3128 3129 3129 3128 3126 3125 3126 3125 3125 3125 3124 3125 3122 3120 3117 3115 3113 3109 3106 3104 3099
3106 3109 3112 3115 3118 3121 3122 3123 3124 3124 3124 3123 3123 3123 3122 3122 3120 3119 3119 3119 3117 3117 3115 3115 3113 3110 3108 3103 3101 3099 3094 3090
3101 3103 3106 3108 3111 3114 3116 3118 3119 3120 3119 3119 3118 3117 3116 3115 3114 3113 3112 3112 3111 3109 3108 3107 3105 3101 3097 3096 3093 3088 3085 3081
3098 3099 3101 3103 3106 3108 3110 3111 3113 3113 3114 3113 3112 3110 3109 3107 3106 3106 3104 3104 3103 3102 3101 3100 3097 3094 3090 3086 3083 3080 3077 3072
3096 3097 3099 3101 3102 3104 3105 3106 3107 3108 3108 3108 3106 3105 3103 3101 3100 3098 3098 3097 3097 3096 3094 3092 3089 3086 3081 3079 3075 3071 3067 3062
3095 3096 3097 3098 3099 3101 3101 3102 3102 3102 3102 3101 3100 3099 3097 3095 3094 3092 3091 3091 3091 3089 3086 3084 3080 3074 3072 3070 3066 3062 3056 3052
3092 3092 3093 3095 3096 3097 3097 3096 3096 3096 3095 3094 3092 3091 3090 3089 3087 3086 3083 3083 3082 3081 3077 3074 3070 3067 3063 3060 3056 3051 3047 3043
3087 3088 3089 3090 3091 3091 3091 3091 3090 3089 3087 3086 3085 3084 3082 3081 3080 3078 3076 3074 3072 3070 3067 3064 3060 3057 3053 3049 3046 3042 3039 3035
3081 3082 3083 3084 3085 3085 3085 3085 3083 3082 3081 3079 3078 3077 3075 3073 3071 3070 3067 3066 3064 3062 3057 3053 3051 3048 3043 3041 3037 3034 3030 3026
3076 3077 3078 3078 3079 3079 3078 3077 3076 3075 3073 3072 3070 3068 3066 3064 3063 3063 3059 3057 3054 3051 3048 3045 3042 3039 3035 3032 3030 3024 3020 3015
3070 3072 3073 3073 3073 3072 3071 3070 3068 3067 3065 3064 3061 3060 3058 3058 3055 3052 3051 3048 3046 3044 3041 3037 3034 3031 3027 3023 3019 3014 3009 3005